Weather History for KOGD - December, 2013

Change the Weather History Date:

Monday, December 9, 2013

  Actual Average Record
Temperature  
Mean Temperature 4 °F -  
Max Temperature 14 °F 40 °F 63 °F (1981)
Min Temperature -6 °F 20 °F -12 °F (1972)
Degree Days  
Heating Degree Days 61    
Moisture  
Dew Point -3 °F    
Average Humidity 73    
Maximum Humidity 83    
Minimum Humidity 59    
Precipitation  
Precipitation 0.00 in - - ()
Sea Level Pressure  
Sea Level Pressure 30.61 in    
Wind  
Wind Speed 4 mph (SSW)    
Max Wind Speed 9 mph    
Max Gust Speed -    
Visibility 9 miles    
Events      
Averages and records for this station are not official NWS values.
T = Trace of Precipitation, MM = Missing Value Source: NWS Daily Summary

Daily Weather History Graph

Daily Weather History Graph

Search for Another Location

Airport or City:

Trip Planner

Search our weather history database for the weather conditions in past years. The results will help you decide how hot, cold, wet, or windy it might be!

Date:

Astronomy

Dec. 09, 2013 Rise Set
Actual Time 7:42 AM MST 4:59 PM MST
Civil Twilight 7:10 AM MST 5:30 PM MST
Nautical Twilight 6:36 AM MST 6:04 PM MST
Astronomical Twilight 6:02 AM MST 6:38 PM MST
Moon 12:33 PM MST (12/9) No Moon Set
Length of Visible Light 10h 19m
Length of Day
9h 17m
First Quarter, 52% of the Moon is Illuminated
Dec 9
First Quarter
Dec 17
Full
Dec 25
Last Quarter
Jan 1
New
Jan 7
First Quarter

Hourly Weather History & Observations

Time (MST) Temp. Windchill Dew Point Humidity Pressure Visibility Wind Dir Wind Speed Gust Speed Precip Events Conditions
12:24 AM 8.6 °F -2.6 °F 3.2 °F 79% 30.20 in 10.0 mi NW 6.9 mph - N/A   Overcast
12:53 AM 8.1 °F -4.3 °F 1.0 °F 73% 30.38 in 10.0 mi NW 8.1 mph - N/A   Overcast
1:53 AM 5.0 °F -4.1 °F -2.9 °F 70% 30.40 in 10.0 mi WNW 4.6 mph - N/A   Mostly Cloudy
2:53 AM 3.0 °F - -6.0 °F 66% 30.45 in 10.0 mi Calm Calm - N/A   Clear
3:53 AM -0.0 °F -9.9 °F -7.1 °F 72% 30.50 in 10.0 mi NNW 4.6 mph - N/A   Clear
4:53 AM -2.9 °F - -9.0 °F 75% 30.53 in 10.0 mi Calm Calm - N/A   Clear
5:53 AM -4.0 °F - -9.0 °F 79% 30.56 in 10.0 mi Calm Calm - N/A   Clear
6:53 AM -6.0 °F -18.6 °F -9.9 °F 83% 30.59 in 10.0 mi South 5.8 mph - N/A   Clear
7:53 AM -4.0 °F -20.2 °F -9.9 °F 76% 30.60 in 10.0 mi South 9.2 mph - N/A   Clear
8:53 AM -2.9 °F - -7.1 °F 82% 30.64 in 9.0 mi Calm Calm - N/A   Clear
9:15 AM -0.4 °F -8.3 °F -5.8 °F 78% 30.43 in 1.8 mi East 3.5 mph - N/A   Clear
9:25 AM -0.4 °F -8.3 °F -5.8 °F 78% 30.44 in 4.0 mi ESE 3.5 mph - N/A   Haze
9:53 AM 3.0 °F - -2.0 °F 80% 30.65 in 10.0 mi Calm Calm - N/A   Clear
10:53 AM 9.0 °F 2.4 °F 1.0 °F 70% 30.66 in 10.0 mi ESE 3.5 mph - N/A   Clear
11:53 AM 12.0 °F 4.1 °F 1.9 °F 64% 30.67 in 10.0 mi SSE 4.6 mph - N/A   Clear
12:53 PM 12.9 °F 6.9 °F 1.0 °F 59% 30.66 in 10.0 mi SSW 3.5 mph - N/A   Clear
1:53 PM 14.0 °F - 3.0 °F 62% 30.66 in 10.0 mi Calm Calm - N/A   Mostly Cloudy
2:53 PM 10.9 °F -0.8 °F 1.9 °F 67% 30.69 in 10.0 mi NW 8.1 mph - N/A   Partly Cloudy
3:53 PM 10.0 °F 3.6 °F 1.0 °F 67% 30.73 in 10.0 mi NW 3.5 mph - N/A   Clear
4:53 PM 7.0 °F 0.1 °F -0.0 °F 73% 30.75 in 10.0 mi NW 3.5 mph - N/A   Clear
5:53 PM 8.1 °F - 1.0 °F 73% 30.75 in 10.0 mi Calm Calm - N/A   Clear
6:53 PM 5.0 °F -2.1 °F -0.0 °F 80% 30.78 in 9.0 mi SSE 3.5 mph - N/A   Partly Cloudy
7:53 PM 5.0 °F -6.9 °F -2.0 °F 73% 30.76 in 10.0 mi South 6.9 mph - N/A   Clear
8:53 PM 5.0 °F -6.9 °F -2.0 °F 73% 30.76 in 10.0 mi South 6.9 mph - N/A   Clear
9:53 PM 3.0 °F - -2.0 °F 80% 30.74 in 10.0 mi Calm Calm - N/A   Clear
10:53 PM 1.9 °F - -4.0 °F 76% 30.72 in 10.0 mi Calm Calm - N/A   Partly Cloudy
11:53 PM 5.0 °F -9.1 °F -2.9 °F 70% 30.68 in 10.0 mi South 9.2 mph - N/A   Mostly Cloudy